{"data":{"norad_id":49092,"intl_designator":"2021-075T","name":"ONEWEB-0304","alt_names":[],"object_type":"PAYLOAD","status":"ACTIVE","operator":null,"country":"UK","launch_date":"2021-08-21","launch_site_code":"TYMSC","launch_vehicle":null,"mission":null,"orbit_class":"UNKNOWN","rcs_meters":null,"size_class":null,"mass_kg":null,"dimensions":null,"purposes":["comms"],"wikipedia_slug":null,"has_3d_model":false,"image_url":null,"decayed_at":null,"tle_current":{"epoch":"2026-05-25T02:00:35.130816Z","epoch_age_seconds":67476,"freshness":"FRESH","line1":"1 49092U 21075T   26145.08373994  .00000086  00000+0  18909-3 0  9993","line2":"2 49092  87.9154  10.4649 0001863  89.1164 271.0181 13.17651375230533","mean_motion":13.17651375,"eccentricity":0.0001863,"inclination_deg":87.9154,"raan_deg":10.4649,"arg_perigee_deg":89.1164,"mean_anomaly_deg":271.0181,"bstar":0.00018909,"rev_number":23053,"period_min":109.28535630299,"perigee_km":1192.2935272677,"apogee_km":1195.1147952844,"semimajor_km":7571.8411612761,"source":"CELESTRAK","updated_at":"2026-05-25T13:38:22.484392Z"}}}